Time,TemperatureF,DewpointF,PressureIn,WindDirection,WindDirectionDegrees,WindSpeedMPH,WindSpeedGustMPH,Humidity,HourlyPrecipIn,Conditions,Clouds,dailyrainin,SolarRadiationWatts/m^2,SoftwareType,DateUTC
2013-11-29 00:05:00,30.9,11.0,30.43,NNE,25,1.0,3.0,43,0.00,,,0.00,0,Wunderground v.1.15,2013-11-29 05:05:00,
2013-11-29 00:07:00,30.9,11.0,30.43,NNE,26,1.0,3.0,43,0.00,,,0.00,0,Wunderground v.1.15,2013-11-29 05:07:00,
2013-11-29 00:12:00,30.9,11.0,30.43,NNE,26,1.0,3.0,43,0.00,,,0.00,0,Wunderground v.1.15,2013-11-29 05:12:00,
2013-11-29 00:15:00,30.9,11.0,30.43,NNE,26,1.0,1.0,43,0.00,,,0.00,0,Wunderground v.1.15,2013-11-29 05:15:00,
2013-11-29 00:27:00,31.0,11.6,30.43,NNE,26,1.0,1.0,44,0.00,,,0.00,0,Wunderground v.1.15,2013-11-29 05:27:00,
2013-11-29 00:37:00,31.0,11.6,30.43,NNE,26,0.0,0.0,44,0.00,,,0.00,0,Wunderground v.1.15,2013-11-29 05:37:00,
2013-11-29 00:46:00,30.9,11.5,30.43,North,360,0.0,0.0,44,0.00,,,0.00,0,Wunderground v.1.15,2013-11-29 05:46:00,
2013-11-29 00:56:00,31.0,11.1,30.43,NNE,26,1.0,1.0,43,0.00,,,0.00,0,Wunderground v.1.15,2013-11-29 05:56:00,
2013-11-29 01:06:00,31.0,11.1,30.43,NNE,26,1.0,1.0,43,0.00,,,0.00,0,Wunderground v.1.15,2013-11-29 06:06:00,
2013-11-29 01:12:00,31.0,11.6,30.43,NNE,26,0.0,1.0,44,0.00,,,0.00,0,Wunderground v.1.15,2013-11-29 06:12:00,
2013-11-29 01:17:00,31.0,11.1,30.43,NNE,26,0.0,1.0,43,0.00,,,0.00,0,Wunderground v.1.15,2013-11-29 06:17:00,
2013-11-29 01:21:00,31.0,11.1,30.43,NNE,26,0.0,1.0,43,0.00,,,0.00,0,Wunderground v.1.15,2013-11-29 06:21:00,
2013-11-29 01:27:00,31.0,11.6,30.43,NNE,26,0.0,0.0,44,0.00,,,0.00,0,Wunderground v.1.15,2013-11-29 06:27:00,
2013-11-29 01:35:00,31.0,12.1,30.43,NNE,26,0.0,2.0,45,0.00,,,0.00,0,Wunderground v.1.15,2013-11-29 06:35:00,
2013-11-29 01:41:00,31.0,12.6,30.43,NNE,26,0.0,2.0,46,0.00,,,0.00,0,Wunderground v.1.15,2013-11-29 06:41:00,
2013-11-29 01:47:00,31.2,13.3,30.43,North,360,1.0,1.0,47,0.00,,,0.00,0,Wunderground v.1.15,2013-11-29 06:47:00,
2013-11-29 01:55:00,31.2,13.8,30.43,NNE,26,1.0,1.0,48,0.00,,,0.00,0,Wunderground v.1.15,2013-11-29 06:55:00,
2013-11-29 02:00:00,31.2,13.8,30.43,NNE,26,0.0,0.0,48,0.00,,,0.00,0,Wunderground v.1.15,2013-11-29 07:00:00,
2013-11-29 02:07:00,31.2,14.2,30.43,NNE,26,0.0,0.0,49,0.00,,,0.00,0,Wunderground v.1.15,2013-11-29 07:07:00,
2013-11-29 02:14:00,31.2,14.7,30.43,North,360,0.0,1.0,50,0.00,,,0.00,0,Wunderground v.1.15,2013-11-29 07:14:00,
2013-11-29 02:20:00,31.2,15.2,30.43,NNE,26,0.0,1.0,51,0.00,,,0.00,0,Wunderground v.1.15,2013-11-29 07:20:00,
2013-11-29 02:26:00,31.2,15.2,30.43,NNE,26,1.0,2.0,51,0.00,,,0.00,0,Wunderground v.1.15,2013-11-29 07:26:00,
2013-11-29 02:34:00,31.2,15.2,30.43,NNE,26,0.0,1.0,51,0.00,,,0.00,0,Wunderground v.1.15,2013-11-29 07:34:00,
2013-11-29 02:40:00,31.2,15.6,30.43,North,360,0.0,2.0,52,0.00,,,0.00,0,Wunderground v.1.15,2013-11-29 07:40:00,
2013-11-29 02:46:00,31.2,15.6,30.43,North,360,0.0,2.0,52,0.00,,,0.00,0,Wunderground v.1.15,2013-11-29 07:46:00,
2013-11-29 02:54:00,31.2,15.6,30.43,North,360,0.0,0.0,52,0.00,,,0.00,0,Wunderground v.1.15,2013-11-29 07:54:00,
2013-11-29 03:03:00,31.2,16.0,30.43,NNE,26,0.0,0.0,53,0.00,,,0.00,0,Wunderground v.1.15,2013-11-29 08:03:00,
2013-11-29 03:08:00,31.2,16.0,30.43,NNE,26,1.0,1.0,53,0.00,,,0.00,0,Wunderground v.1.15,2013-11-29 08:08:00,
2013-11-29 03:14:00,31.2,16.5,30.43,North,360,1.0,3.0,54,0.00,,,0.00,0,Wunderground v.1.15,2013-11-29 08:14:00,
2013-11-29 03:20:00,31.2,16.5,30.43,NNE,27,1.0,3.0,54,0.00,,,0.00,0,Wunderground v.1.15,2013-11-29 08:20:00,
2013-11-29 03:26:00,31.2,16.0,30.43,NNE,26,2.0,3.0,53,0.00,,,0.00,0,Wunderground v.1.15,2013-11-29 08:26:00,
2013-11-29 03:34:00,31.2,16.5,30.43,NNE,26,1.0,1.0,54,0.00,,,0.00,0,Wunderground v.1.15,2013-11-29 08:34:00,
2013-11-29 03:40:00,31.2,16.5,30.43,NNE,26,0.0,0.0,54,0.00,,,0.00,0,Wunderground v.1.15,2013-11-29 08:40:00,
2013-11-29 03:46:00,31.0,16.3,30.43,NNE,26,0.0,0.0,54,0.00,,,0.00,0,Wunderground v.1.15,2013-11-29 08:46:00,
2013-11-29 03:52:00,31.0,16.7,30.43,NNE,26,0.0,0.0,55,0.00,,,0.00,0,Wunderground v.1.15,2013-11-29 08:52:00,
2013-11-29 03:58:00,31.0,16.7,30.43,NNE,26,0.0,0.0,55,0.00,,,0.00,0,Wunderground v.1.15,2013-11-29 08:58:00,
2013-11-29 04:03:00,31.0,16.7,30.43,North,360,1.0,1.0,55,0.00,,,0.00,0,Wunderground v.1.15,2013-11-29 09:03:00,
2013-11-29 04:09:00,31.0,16.7,30.43,NNE,26,1.0,2.0,55,0.00,,,0.00,0,Wunderground v.1.15,2013-11-29 09:09:00,
2013-11-29 04:15:00,31.0,16.7,30.43,NNE,26,0.0,2.0,55,0.00,,,0.00,0,Wunderground v.1.15,2013-11-29 09:15:00,
2013-11-29 04:21:00,31.0,16.7,30.43,North,360,1.0,2.0,55,0.00,,,0.00,0,Wunderground v.1.15,2013-11-29 09:21:00,
2013-11-29 04:27:00,30.9,17.0,30.43,NNE,27,1.0,2.0,56,0.00,,,0.00,0,Wunderground v.1.15,2013-11-29 09:27:00,
2013-11-29 04:35:00,30.9,17.4,30.44,NNE,26,0.0,0.0,57,0.00,,,0.00,0,Wunderground v.1.15,2013-11-29 09:35:00,
2013-11-29 04:41:00,30.9,17.4,30.44,North,360,0.0,0.0,57,0.00,,,0.00,0,Wunderground v.1.15,2013-11-29 09:41:00,
2013-11-29 04:47:00,30.7,17.3,30.44,NNE,26,1.0,2.0,57,0.00,,,0.00,0,Wunderground v.1.15,2013-11-29 09:47:00,
2013-11-29 04:55:00,30.7,17.3,30.44,North,360,1.0,1.0,57,0.00,,,0.00,0,Wunderground v.1.15,2013-11-29 09:55:00,
2013-11-29 05:01:00,30.7,17.3,30.45,NNE,26,1.0,3.0,57,0.00,,,0.00,0,Wunderground v.1.15,2013-11-29 10:01:00,
2013-11-29 05:06:00,30.6,17.2,30.45,North,360,2.0,3.0,57,0.00,,,0.00,0,Wunderground v.1.15,2013-11-29 10:06:00,
2013-11-29 05:14:00,30.6,17.6,30.45,North,360,2.0,2.0,58,0.00,,,0.00,0,Wunderground v.1.15,2013-11-29 10:14:00,
2013-11-29 05:20:00,30.4,17.4,30.45,North,360,1.0,2.0,58,0.00,,,0.00,0,Wunderground v.1.15,2013-11-29 10:20:00,
2013-11-29 05:26:00,30.4,17.4,30.45,North,360,1.0,2.0,58,0.00,,,0.00,0,Wunderground v.1.15,2013-11-29 10:26:00,
2013-11-29 05:33:00,30.3,17.7,30.46,North,360,1.0,1.0,59,0.00,,,0.00,0,Wunderground v.1.15,2013-11-29 10:33:00,
2013-11-29 05:38:00,30.1,17.5,30.46,North,360,0.0,1.0,59,0.00,,,0.00,0,Wunderground v.1.15,2013-11-29 10:38:00,
2013-11-29 05:44:00,30.1,17.9,30.46,North,360,0.0,0.0,60,0.00,,,0.00,0,Wunderground v.1.15,2013-11-29 10:44:00,
2013-11-29 05:50:00,30.0,17.8,30.46,North,360,0.0,0.0,60,0.00,,,0.00,0,Wunderground v.1.15,2013-11-29 10:50:00,
2013-11-29 05:56:00,29.8,18.0,30.46,North,360,0.0,2.0,61,0.00,,,0.00,0,Wunderground v.1.15,2013-11-29 10:56:00,
2013-11-29 06:04:00,29.7,17.9,30.47,North,360,1.0,2.0,61,0.00,,,0.00,0,Wunderground v.1.15,2013-11-29 11:04:00,
2013-11-29 06:10:00,29.7,17.9,30.47,North,360,1.0,1.0,61,0.00,,,0.00,0,Wunderground v.1.15,2013-11-29 11:10:00,
2013-11-29 06:16:00,29.7,18.3,30.48,North,360,1.0,1.0,62,0.00,,,0.00,0,Wunderground v.1.15,2013-11-29 11:16:00,
2013-11-29 06:24:00,29.5,18.1,30.48,North,360,0.0,0.0,62,0.00,,,0.00,0,Wunderground v.1.15,2013-11-29 11:24:00,
2013-11-29 06:30:00,29.5,18.1,30.48,North,360,0.0,0.0,62,0.00,,,0.00,0,Wunderground v.1.15,2013-11-29 11:30:00,
2013-11-29 06:36:00,29.5,18.1,30.48,North,360,0.0,0.0,62,0.00,,,0.00,0,Wunderground v.1.15,2013-11-29 11:36:00,
2013-11-29 06:42:00,29.4,18.3,30.48,North,360,0.0,0.0,63,0.00,,,0.00,0,Wunderground v.1.15,2013-11-29 11:42:00,
2013-11-29 06:48:00,29.4,18.3,30.49,North,360,0.0,1.0,63,0.00,,,0.00,0,Wunderground v.1.15,2013-11-29 11:48:00,
2013-11-29 06:54:00,29.3,18.3,30.49,North,360,0.0,0.0,63,0.00,,,0.00,0,Wunderground v.1.15,2013-11-29 11:54:00,
2013-11-29 07:00:00,29.1,18.4,30.49,North,360,0.0,0.0,64,0.00,,,0.00,0,Wunderground v.1.15,2013-11-29 12:00:00,
2013-11-29 07:06:00,29.1,18.4,30.49,North,360,0.0,0.0,64,0.00,,,0.00,0,Wunderground v.1.15,2013-11-29 12:06:00,
2013-11-29 07:11:00,29.1,18.8,30.49,North,360,0.0,0.0,65,0.00,,,0.00,7,Wunderground v.1.15,2013-11-29 12:11:00,
2013-11-29 07:17:00,29.1,18.8,30.50,North,360,0.0,0.0,65,0.00,,,0.00,11,Wunderground v.1.15,2013-11-29 12:17:00,
2013-11-29 07:25:00,29.1,19.2,30.50,North,360,0.0,0.0,66,0.00,,,0.00,16,Wunderground v.1.15,2013-11-29 12:25:00,
2013-11-29 07:31:00,29.1,19.2,30.51,North,360,0.0,0.0,66,0.00,,,0.00,23,Wunderground v.1.15,2013-11-29 12:31:00,
2013-11-29 07:37:00,29.0,19.4,30.51,North,360,0.0,0.0,67,0.00,,,0.00,30,Wunderground v.1.15,2013-11-29 12:37:00,
2013-11-29 07:45:00,29.0,19.8,30.51,North,360,0.0,0.0,68,0.00,,,0.00,40,Wunderground v.1.15,2013-11-29 12:45:00,
2013-11-29 07:51:00,29.0,19.8,30.52,North,360,0.0,0.0,68,0.00,,,0.00,53,Wunderground v.1.15,2013-11-29 12:51:00,
2013-11-29 07:57:00,29.0,20.1,30.52,North,360,0.0,0.0,69,0.00,,,0.00,67,Wunderground v.1.15,2013-11-29 12:57:00,
2013-11-29 08:04:00,29.1,20.2,30.52,North,360,0.0,0.0,69,0.00,,,0.00,83,Wunderground v.1.15,2013-11-29 13:04:00,
2013-11-29 08:11:00,29.3,20.7,30.52,North,360,0.0,0.0,70,0.00,,,0.00,100,Wunderground v.1.15,2013-11-29 13:11:00,
2013-11-29 08:16:00,29.4,20.5,30.53,North,360,0.0,0.0,69,0.00,,,0.00,84,Wunderground v.1.15,2013-11-29 13:16:00,
2013-11-29 08:24:00,30.0,20.0,30.53,North,360,0.0,3.0,66,0.00,,,0.00,127,Wunderground v.1.15,2013-11-29 13:24:00,
2013-11-29 08:30:00,30.6,19.9,30.53,North,360,1.0,1.0,64,0.00,,,0.00,185,Wunderground v.1.15,2013-11-29 13:30:00,
2013-11-29 08:36:00,31.0,18.7,30.53,North,360,1.0,2.0,60,0.00,,,0.00,188,Wunderground v.1.15,2013-11-29 13:36:00,
2013-11-29 08:43:00,31.6,18.5,30.53,North,360,1.0,1.0,58,0.00,,,0.00,204,Wunderground v.1.15,2013-11-29 13:43:00,
2013-11-29 08:48:00,32.1,18.6,30.53,North,360,1.0,2.0,57,0.00,,,0.00,206,Wunderground v.1.15,2013-11-29 13:48:00,
2013-11-29 08:54:00,32.5,18.5,30.53,North,360,1.0,1.0,56,0.00,,,0.00,214,Wunderground v.1.15,2013-11-29 13:54:00,
2013-11-29 09:00:00,32.9,18.5,30.53,North,360,1.0,1.0,55,0.00,,,0.00,227,Wunderground v.1.15,2013-11-29 14:00:00,
2013-11-29 09:06:00,33.4,18.5,30.54,North,360,1.0,2.0,54,0.00,,,0.00,237,Wunderground v.1.15,2013-11-29 14:06:00,
2013-11-29 09:14:00,34.0,18.2,30.54,North,360,1.0,2.0,52,0.00,,,0.00,251,Wunderground v.1.15,2013-11-29 14:14:00,
2013-11-29 09:20:00,34.6,17.8,30.54,North,360,1.0,4.0,50,0.00,,,0.00,264,Wunderground v.1.15,2013-11-29 14:20:00,
2013-11-29 09:26:00,34.9,17.7,30.54,North,360,2.0,4.0,49,0.00,,,0.00,274,Wunderground v.1.15,2013-11-29 14:26:00,
2013-11-29 09:34:00,35.0,17.7,30.54,North,360,2.0,3.0,49,0.00,,,0.00,287,Wunderground v.1.15,2013-11-29 14:34:00,
2013-11-29 09:40:00,35.5,17.7,30.54,North,360,1.0,1.0,48,0.00,,,0.00,297,Wunderground v.1.15,2013-11-29 14:40:00,
2013-11-29 09:46:00,35.6,17.3,30.54,North,360,2.0,3.0,47,0.00,,,0.00,306,Wunderground v.1.15,2013-11-29 14:46:00,
2013-11-29 09:52:00,35.9,17.6,30.54,North,360,2.0,2.0,47,0.00,,,0.00,316,Wunderground v.1.15,2013-11-29 14:52:00,
2013-11-29 09:57:00,36.0,17.2,30.54,North,360,1.0,1.0,46,0.00,,,0.00,323,Wunderground v.1.15,2013-11-29 14:57:00,
2013-11-29 10:04:00,36.6,17.2,30.54,North,360,1.0,1.0,45,0.00,,,0.00,332,Wunderground v.1.15,2013-11-29 15:04:00,
2013-11-29 10:11:00,37.0,17.6,30.54,North,360,0.0,1.0,45,0.00,,,0.00,343,Wunderground v.1.15,2013-11-29 15:11:00,
2013-11-29 10:17:00,37.5,17.0,30.54,North,360,1.0,2.0,43,0.00,,,0.00,350,Wunderground v.1.15,2013-11-29 15:17:00,
2013-11-29 10:25:00,37.5,17.0,30.54,North,360,2.0,3.0,43,0.00,,,0.00,360,Wunderground v.1.15,2013-11-29 15:25:00,
2013-11-29 10:31:00,37.5,17.0,30.54,North,360,2.0,2.0,43,0.00,,,0.00,366,Wunderground v.1.15,2013-11-29 15:31:00,
2013-11-29 10:37:00,37.9,16.3,30.54,North,360,2.0,5.0,41,0.00,,,0.00,374,Wunderground v.1.15,2013-11-29 15:37:00,
2013-11-29 10:43:00,37.8,16.7,30.54,North,360,3.0,5.0,42,0.00,,,0.00,380,Wunderground v.1.15,2013-11-29 15:43:00,
2013-11-29 10:51:00,37.9,16.8,30.54,North,360,2.0,2.0,42,0.00,,,0.00,394,Wunderground v.1.15,2013-11-29 15:51:00,
2013-11-29 10:56:00,38.3,17.2,30.54,North,360,1.0,3.0,42,0.00,,,0.00,396,Wunderground v.1.15,2013-11-29 15:56:00,
2013-11-29 11:04:00,38.5,16.8,30.54,North,360,2.0,6.0,41,0.00,,,0.00,413,Wunderground v.1.15,2013-11-29 16:04:00,
2013-11-29 11:10:00,38.3,16.6,30.54,North,360,3.0,3.0,41,0.00,,,0.00,464,Wunderground v.1.15,2013-11-29 16:10:00,
2013-11-29 11:16:00,38.8,17.1,30.54,North,360,2.0,3.0,41,0.00,,,0.00,432,Wunderground v.1.15,2013-11-29 16:16:00,
2013-11-29 11:23:00,38.6,16.3,30.54,North,360,3.0,7.0,40,0.00,,,0.00,464,Wunderground v.1.15,2013-11-29 16:23:00,
2013-11-29 11:30:00,38.2,17.1,30.54,North,360,3.0,3.0,42,0.00,,,0.00,155,Wunderground v.1.15,2013-11-29 16:30:00,
2013-11-29 11:36:00,38.2,17.1,30.54,North,360,2.0,5.0,42,0.00,,,0.00,165,Wunderground v.1.15,2013-11-29 16:36:00,
2013-11-29 11:44:00,38.2,17.6,30.54,North,360,2.0,2.0,43,0.00,,,0.00,135,Wunderground v.1.15,2013-11-29 16:44:00,
2013-11-29 11:50:00,37.8,16.7,30.54,North,360,3.0,3.0,42,0.00,,,0.00,125,Wunderground v.1.15,2013-11-29 16:50:00,
2013-11-29 11:56:00,37.3,16.3,30.54,North,360,3.0,5.0,42,0.00,,,0.00,116,Wunderground v.1.15,2013-11-29 16:56:00,
2013-11-29 12:03:00,36.9,17.0,30.53,North,360,3.0,4.0,44,0.00,,,0.00,107,Wunderground v.1.15,2013-11-29 17:03:00,
2013-11-29 12:10:00,36.6,17.2,30.53,North,360,1.0,1.0,45,0.00,,,0.00,63,Wunderground v.1.15,2013-11-29 17:10:00,
2013-11-29 12:16:00,36.5,17.1,30.53,North,360,1.0,2.0,45,0.00,,,0.00,76,Wunderground v.1.15,2013-11-29 17:16:00,
2013-11-29 12:24:00,36.8,17.4,30.53,North,360,2.0,4.0,45,0.00,,,0.00,448,Wunderground v.1.15,2013-11-29 17:24:00,
2013-11-29 12:30:00,37.0,16.5,30.53,North,360,2.0,2.0,43,0.00,,,0.00,158,Wunderground v.1.15,2013-11-29 17:30:00,
2013-11-29 12:36:00,37.6,17.1,30.53,North,360,1.0,2.0,43,0.00,,,0.00,531,Wunderground v.1.15,2013-11-29 17:36:00,
2013-11-29 12:44:00,38.8,16.5,30.53,North,360,3.0,6.0,40,0.00,,,0.00,443,Wunderground v.1.15,2013-11-29 17:44:00,
2013-11-29 12:50:00,38.5,16.2,30.53,North,360,5.0,5.0,40,0.00,,,0.00,436,Wunderground v.1.15,2013-11-29 17:50:00,
2013-11-29 12:56:00,38.2,16.5,30.53,North,360,4.0,5.0,41,0.00,,,0.00,83,Wunderground v.1.15,2013-11-29 17:56:00,
2013-11-29 13:02:00,37.9,16.3,30.54,North,360,3.0,5.0,41,0.00,,,0.00,153,Wunderground v.1.15,2013-11-29 18:02:00,
2013-11-29 13:11:00,37.6,16.5,30.54,North,360,3.0,3.0,42,0.00,,,0.00,209,Wunderground v.1.15,2013-11-29 18:11:00,
2013-11-29 13:17:00,37.9,16.8,30.54,North,360,2.0,7.0,42,0.00,,,0.00,114,Wunderground v.1.15,2013-11-29 18:17:00,
2013-11-29 13:25:00,37.9,16.8,30.54,North,360,3.0,8.0,42,0.00,,,0.00,141,Wunderground v.1.15,2013-11-29 18:25:00,
2013-11-29 13:31:00,37.8,16.7,30.54,North,360,4.0,4.0,42,0.00,,,0.00,132,Wunderground v.1.15,2013-11-29 18:31:00,
2013-11-29 13:37:00,37.5,16.5,30.54,North,360,5.0,9.0,42,0.00,,,0.00,135,Wunderground v.1.15,2013-11-29 18:37:00,
2013-11-29 13:45:00,37.0,16.5,30.54,North,360,5.0,7.0,43,0.00,,,0.00,95,Wunderground v.1.15,2013-11-29 18:45:00,
2013-11-29 13:51:00,36.9,16.5,30.54,North,360,4.0,4.0,43,0.00,,,0.00,98,Wunderground v.1.15,2013-11-29 18:51:00,
2013-11-29 13:57:00,36.8,15.3,30.54,North,360,3.0,4.0,41,0.00,,,0.00,141,Wunderground v.1.15,2013-11-29 18:57:00,
2013-11-29 14:04:00,36.6,15.6,30.54,North,360,4.0,8.0,42,0.00,,,0.00,58,Wunderground v.1.15,2013-11-29 19:04:00,
2013-11-29 14:10:00,36.5,15.6,30.54,North,360,3.0,10.0,42,0.00,,,0.00,56,Wunderground v.1.15,2013-11-29 19:10:00,
2013-11-29 14:16:00,36.5,16.1,30.54,North,360,3.0,10.0,43,0.00,,,0.00,271,Wunderground v.1.15,2013-11-29 19:16:00,
2013-11-29 14:23:00,37.0,15.5,30.54,North,360,3.0,4.0,41,0.00,,,0.00,260,Wunderground v.1.15,2013-11-29 19:23:00,
2013-11-29 14:28:00,37.3,16.8,30.54,North,360,3.0,4.0,43,0.00,,,0.00,250,Wunderground v.1.15,2013-11-29 19:28:00,
2013-11-29 14:34:00,37.6,17.1,30.55,North,360,3.0,4.0,43,0.00,,,0.00,241,Wunderground v.1.15,2013-11-29 19:34:00,
2013-11-29 14:40:00,37.2,17.3,30.55,North,360,3.0,3.0,44,0.00,,,0.00,216,Wunderground v.1.15,2013-11-29 19:40:00,
2013-11-29 14:46:00,36.9,18.0,30.56,North,360,3.0,4.0,46,0.00,,,0.00,202,Wunderground v.1.15,2013-11-29 19:46:00,
2013-11-29 14:54:00,36.5,16.6,30.56,North,360,4.0,4.0,44,0.00,,,0.00,165,Wunderground v.1.15,2013-11-29 19:54:00,
2013-11-29 15:00:00,36.5,16.1,30.56,North,360,4.0,6.0,43,0.00,,,0.00,171,Wunderground v.1.15,2013-11-29 20:00:00,
2013-11-29 15:06:00,36.3,15.4,30.57,North,360,3.0,6.0,42,0.00,,,0.00,135,Wunderground v.1.15,2013-11-29 20:06:00,
2013-11-29 15:14:00,36.2,15.8,30.57,North,360,2.0,3.0,43,0.00,,,0.00,118,Wunderground v.1.15,2013-11-29 20:14:00,
2013-11-29 15:20:00,35.9,15.5,30.57,North,360,2.0,2.0,43,0.00,,,0.00,114,Wunderground v.1.15,2013-11-29 20:20:00,
2013-11-29 15:26:00,35.9,16.1,30.57,North,360,2.0,3.0,44,0.00,,,0.00,35,Wunderground v.1.15,2013-11-29 20:26:00,
2013-11-29 15:34:00,35.8,15.5,30.57,North,360,4.0,6.0,43,0.00,,,0.00,69,Wunderground v.1.15,2013-11-29 20:34:00,
2013-11-29 15:40:00,35.6,15.3,30.57,North,360,4.0,4.0,43,0.00,,,0.00,56,Wunderground v.1.15,2013-11-29 20:40:00,
2013-11-29 15:46:00,35.6,15.3,30.57,North,360,3.0,4.0,43,0.00,,,0.00,62,Wunderground v.1.15,2013-11-29 20:46:00,
2013-11-29 15:54:00,35.3,15.5,30.58,North,360,3.0,4.0,44,0.00,,,0.00,18,Wunderground v.1.15,2013-11-29 20:54:00,
2013-11-29 15:59:00,35.2,15.4,30.58,North,360,2.0,3.0,44,0.00,,,0.00,14,Wunderground v.1.15,2013-11-29 20:59:00,
2013-11-29 16:05:00,35.0,15.3,30.59,North,360,3.0,5.0,44,0.00,,,0.00,12,Wunderground v.1.15,2013-11-29 21:05:00,
2013-11-29 16:11:00,34.7,15.5,30.59,North,360,3.0,6.0,45,0.00,,,0.00,11,Wunderground v.1.15,2013-11-29 21:11:00,
2013-11-29 16:17:00,34.6,15.9,30.59,North,360,4.0,6.0,46,0.00,,,0.00,9,Wunderground v.1.15,2013-11-29 21:17:00,
2013-11-29 16:23:00,34.4,15.2,30.59,North,360,4.0,4.0,45,0.00,,,0.00,5,Wunderground v.1.15,2013-11-29 21:23:00,
2013-11-29 16:31:00,34.3,15.6,30.60,North,360,4.0,4.0,46,0.00,,,0.00,0,Wunderground v.1.15,2013-11-29 21:31:00,
2013-11-29 16:37:00,34.1,15.5,30.60,North,360,3.0,4.0,46,0.00,,,0.00,0,Wunderground v.1.15,2013-11-29 21:37:00,
2013-11-29 16:45:00,34.0,15.4,30.60,North,360,4.0,4.0,46,0.00,,,0.00,0,Wunderground v.1.15,2013-11-29 21:45:00,
2013-11-29 16:50:00,33.8,15.2,30.60,North,360,3.0,6.0,46,0.00,,,0.00,0,Wunderground v.1.15,2013-11-29 21:50:00,
2013-11-29 16:56:00,33.7,15.6,30.60,North,360,3.0,8.0,47,0.00,,,0.00,0,Wunderground v.1.15,2013-11-29 21:56:00,
2013-11-29 17:03:00,33.5,15.4,30.61,North,360,4.0,6.0,47,0.00,,,0.00,0,Wunderground v.1.15,2013-11-29 22:03:00,
2013-11-29 17:08:00,33.4,15.3,30.61,North,360,4.0,6.0,47,0.00,,,0.00,0,Wunderground v.1.15,2013-11-29 22:08:00,
2013-11-29 17:14:00,33.4,14.8,30.61,North,360,4.0,6.0,46,0.00,,,0.00,0,Wunderground v.1.15,2013-11-29 22:14:00,
2013-11-29 17:20:00,33.2,14.6,30.61,North,360,5.0,5.0,46,0.00,,,0.00,0,Wunderground v.1.15,2013-11-29 22:20:00,
2013-11-29 17:26:00,33.2,14.1,30.61,North,360,5.0,7.0,45,0.00,,,0.00,0,Wunderground v.1.15,2013-11-29 22:26:00,
2013-11-29 17:34:00,33.1,16.0,30.61,North,360,5.0,8.0,49,0.00,,,0.00,0,Wunderground v.1.15,2013-11-29 22:34:00,
2013-11-29 17:40:00,32.9,14.4,30.61,North,360,4.0,4.0,46,0.00,,,0.00,0,Wunderground v.1.15,2013-11-29 22:40:00,
2013-11-29 17:46:00,32.9,14.4,30.61,North,360,3.0,4.0,46,0.00,,,0.00,0,Wunderground v.1.15,2013-11-29 22:46:00,
2013-11-29 17:54:00,32.7,14.2,30.61,North,360,2.0,3.0,46,0.00,,,0.00,0,Wunderground v.1.15,2013-11-29 22:54:00,
2013-11-29 18:00:00,32.7,14.2,30.61,North,360,2.0,2.0,46,0.00,,,0.00,0,Wunderground v.1.15,2013-11-29 23:00:00,
2013-11-29 18:06:00,32.5,14.0,30.62,North,360,1.0,5.0,46,0.00,,,0.00,0,Wunderground v.1.15,2013-11-29 23:06:00,
2013-11-29 18:14:00,32.4,14.4,30.62,North,360,1.0,3.0,47,0.00,,,0.00,0,Wunderground v.1.15,2013-11-29 23:14:00,
2013-11-29 18:20:00,32.2,14.2,30.63,North,360,1.0,1.0,47,0.00,,,0.00,0,Wunderground v.1.15,2013-11-29 23:20:00,
2013-11-29 18:26:00,32.2,14.7,30.63,North,360,1.0,1.0,48,0.00,,,0.00,0,Wunderground v.1.15,2013-11-29 23:26:00,
2013-11-29 18:34:00,32.1,14.6,30.63,North,360,0.0,0.0,48,0.00,,,0.00,0,Wunderground v.1.15,2013-11-29 23:34:00,
2013-11-29 18:40:00,31.9,14.9,30.63,North,360,1.0,1.0,49,0.00,,,0.00,0,Wunderground v.1.15,2013-11-29 23:40:00,
2013-11-29 18:46:00,31.8,14.8,30.64,North,360,1.0,1.0,49,0.00,,,0.00,0,Wunderground v.1.15,2013-11-29 23:46:00,
2013-11-29 18:52:00,31.8,14.8,30.64,North,360,1.0,1.0,49,0.00,,,0.00,0,Wunderground v.1.15,2013-11-29 23:52:00,
2013-11-29 19:00:00,31.6,15.1,30.64,North,360,1.0,1.0,50,0.00,,,0.00,0,Wunderground v.1.15,2013-11-30 00:00:00,
2013-11-29 19:05:00,31.5,15.0,30.65,North,360,1.0,1.0,50,0.00,,,0.00,0,Wunderground v.1.15,2013-11-30 00:05:00,
2013-11-29 19:11:00,31.3,14.8,30.65,North,360,0.0,0.0,50,0.00,,,0.00,0,Wunderground v.1.15,2013-11-30 00:11:00,
2013-11-29 19:17:00,31.2,15.2,30.65,North,360,0.0,1.0,51,0.00,,,0.00,0,Wunderground v.1.15,2013-11-30 00:17:00,
2013-11-29 19:25:00,31.0,15.4,30.65,North,360,2.0,3.0,52,0.00,,,0.00,0,Wunderground v.1.15,2013-11-30 00:25:00,
2013-11-29 19:31:00,31.0,15.4,30.65,North,360,2.0,2.0,52,0.00,,,0.00,0,Wunderground v.1.15,2013-11-30 00:31:00,
2013-11-29 19:37:00,30.9,15.3,30.65,North,360,2.0,3.0,52,0.00,,,0.00,0,Wunderground v.1.15,2013-11-30 00:37:00,
2013-11-29 19:43:00,30.9,15.3,30.65,North,360,2.0,2.0,52,0.00,,,0.00,0,Wunderground v.1.15,2013-11-30 00:43:00,
2013-11-29 19:48:00,30.9,15.3,30.66,North,360,2.0,3.0,52,0.00,,,0.00,0,Wunderground v.1.15,2013-11-30 00:48:00,
2013-11-29 19:54:00,30.9,15.3,30.66,North,360,3.0,3.0,52,0.00,,,0.00,0,Wunderground v.1.15,2013-11-30 00:54:00,
2013-11-29 20:00:00,30.7,15.1,30.66,North,360,2.0,5.0,52,0.00,,,0.00,0,Wunderground v.1.15,2013-11-30 01:00:00,
2013-11-29 20:06:00,30.7,15.1,30.66,North,360,2.0,5.0,52,0.00,,,0.00,0,Wunderground v.1.15,2013-11-30 01:06:00,
2013-11-29 20:14:00,30.6,15.5,30.66,North,360,1.0,3.0,53,0.00,,,0.00,0,Wunderground v.1.15,2013-11-30 01:14:00,
2013-11-29 20:20:00,30.4,15.3,30.67,North,360,2.0,2.0,53,0.00,,,0.00,0,Wunderground v.1.15,2013-11-30 01:20:00,
2013-11-29 20:26:00,30.3,13.4,30.67,North,360,2.0,2.0,49,0.00,,,0.00,0,Wunderground v.1.15,2013-11-30 01:26:00,
2013-11-29 20:34:00,30.1,15.4,30.67,North,360,2.0,2.0,54,0.00,,,0.00,0,Wunderground v.1.15,2013-11-30 01:34:00,
2013-11-29 20:40:00,30.1,15.4,30.67,North,360,3.0,3.0,54,0.00,,,0.00,0,Wunderground v.1.15,2013-11-30 01:40:00,
2013-11-29 20:46:00,30.0,15.3,30.67,North,360,2.0,3.0,54,0.00,,,0.00,0,Wunderground v.1.15,2013-11-30 01:46:00,
2013-11-29 20:54:00,29.8,15.2,30.67,North,360,2.0,2.0,54,0.00,,,0.00,0,Wunderground v.1.15,2013-11-30 01:54:00,
2013-11-29 21:00:00,29.8,15.6,30.67,North,360,2.0,2.0,55,0.00,,,0.00,0,Wunderground v.1.15,2013-11-30 02:00:00,
2013-11-29 21:06:00,29.7,15.5,30.67,North,360,2.0,5.0,55,0.00,,,0.00,0,Wunderground v.1.15,2013-11-30 02:06:00,
2013-11-29 21:12:00,29.5,15.3,30.67,North,360,2.0,2.0,55,0.00,,,0.00,0,Wunderground v.1.15,2013-11-30 02:12:00,
2013-11-29 21:18:00,29.5,15.3,30.67,North,360,3.0,3.0,55,0.00,,,0.00,0,Wunderground v.1.15,2013-11-30 02:18:00,
2013-11-29 21:24:00,29.4,15.2,30.67,North,360,2.0,3.0,55,0.00,,,0.00,0,Wunderground v.1.15,2013-11-30 02:24:00,
2013-11-29 21:30:00,29.4,15.2,30.67,North,360,2.0,2.0,55,0.00,,,0.00,0,Wunderground v.1.15,2013-11-30 02:30:00,
2013-11-29 21:36:00,29.3,15.1,30.68,North,360,2.0,3.0,55,0.00,,,0.00,0,Wunderground v.1.15,2013-11-30 02:36:00,
2013-11-29 21:44:00,29.3,15.1,30.68,North,360,2.0,3.0,55,0.00,,,0.00,0,Wunderground v.1.15,2013-11-30 02:44:00,
2013-11-29 21:50:00,29.3,15.1,30.68,North,360,1.0,1.0,55,0.00,,,0.00,0,Wunderground v.1.15,2013-11-30 02:50:00,
2013-11-29 21:55:00,29.1,15.3,30.68,North,360,1.0,2.0,56,0.00,,,0.00,0,Wunderground v.1.15,2013-11-30 02:55:00,
2013-11-29 22:01:00,29.1,14.9,30.68,North,360,1.0,1.0,55,0.00,,,0.00,0,Wunderground v.1.15,2013-11-30 03:01:00,
2013-11-29 22:07:00,29.0,15.2,30.68,North,360,1.0,2.0,56,0.00,,,0.00,0,Wunderground v.1.15,2013-11-30 03:07:00,
2013-11-29 22:15:00,28.8,14.6,30.68,North,360,1.0,2.0,55,0.00,,,0.00,0,Wunderground v.1.15,2013-11-30 03:15:00,
2013-11-29 22:21:00,28.7,14.6,30.69,North,360,2.0,2.0,55,0.00,,,0.00,0,Wunderground v.1.15,2013-11-30 03:21:00,
2013-11-29 22:27:00,28.5,14.4,30.69,North,360,3.0,4.0,55,0.00,,,0.00,0,Wunderground v.1.15,2013-11-30 03:27:00,
2013-11-29 22:35:00,28.5,13.9,30.69,North,360,2.0,3.0,54,0.00,,,0.00,0,Wunderground v.1.15,2013-11-30 03:35:00,
2013-11-29 22:41:00,28.4,13.4,30.69,North,360,2.0,6.0,53,0.00,,,0.00,0,Wunderground v.1.15,2013-11-30 03:41:00,
2013-11-29 22:46:00,28.4,13.0,30.69,North,360,4.0,6.0,52,0.00,,,0.00,0,Wunderground v.1.15,2013-11-30 03:46:00,
2013-11-29 22:54:00,28.2,12.8,30.69,North,360,3.0,4.0,52,0.00,,,0.00,0,Wunderground v.1.15,2013-11-30 03:54:00,
2013-11-29 23:00:00,28.2,12.8,30.69,North,360,2.0,2.0,52,0.00,,,0.00,0,Wunderground v.1.15,2013-11-30 04:00:00,
2013-11-29 23:06:00,28.2,12.8,30.69,North,360,2.0,3.0,52,0.00,,,0.00,0,Wunderground v.1.15,2013-11-30 04:06:00,
2013-11-29 23:14:00,27.9,12.1,30.69,North,360,2.0,4.0,51,0.00,,,0.00,0,Wunderground v.1.15,2013-11-30 04:14:00,
2013-11-29 23:20:00,27.9,11.6,30.70,North,360,3.0,3.0,50,0.00,,,0.00,0,Wunderground v.1.15,2013-11-30 04:20:00,
2013-11-29 23:26:00,27.9,11.6,30.70,North,360,4.0,6.0,50,0.00,,,0.00,0,Wunderground v.1.15,2013-11-30 04:26:00,
2013-11-29 23:34:00,27.8,11.1,30.69,North,360,3.0,4.0,49,0.00,,,0.00,0,Wunderground v.1.15,2013-11-30 04:34:00,
2013-11-29 23:40:00,27.6,10.9,30.69,North,360,2.0,2.0,49,0.00,,,0.00,0,Wunderground v.1.15,2013-11-30 04:40:00,
2013-11-29 23:46:00,27.5,10.8,30.69,North,360,1.0,4.0,49,0.00,,,0.00,0,Wunderground v.1.15,2013-11-30 04:46:00,
2013-11-29 23:54:00,27.3,10.2,30.69,North,360,2.0,3.0,48,0.00,,,0.00,0,Wunderground v.1.15,2013-11-30 04:54:00,